Location: *
(51.0333°S, 178.4667°E)
Time: 06:46:32
(UTC+00:00)

Cosmos 1602 - Pass Details

Date: 15 November 2019
Orbit: 514 x 536 km, 82.5° (Epoch: 06 December)

Event Time Altitude Azimuth Distance (km) Brightness Sun altitude
Exits shadow 09:13:48 - 343° (NNW) 2,162 6.5 -12.5°
Reaches altitude 10° 09:14:44 10° 342° (NNW) 1,785 6.1 -12.6°
Maximum altitude 09:18:38 68° 258° (WSW) 587 4.1 -12.9°
Drops below altitude 10° 09:22:38 10° 174° (S) 1,825 7.2 -13.3°
Sets 09:24:50 0° 171° (S) 2,728 8.1 -13.5°
